AFR779 LFPG-KJFK

Flight info

Callsign AFR779
Flight time N/A
Altitude 36000
Route ELCOB UT300 SENLO DCT JSY DCT LIZAD DCT LULOX DCT LIMRI/M084F360 NATE JOOPY/N0481F360 N328A TUSKY DCT PLYMM PARCH4
Aircraft B789/H-L/S

Departure

Time 2026-05-01 11:09
Airport Charles de Gaulle International Airport (LFPG)

Arrival

Time N/A
Airport John F. Kennedy International Airport (KJFK)
Time Latitude Longitude Altitude Speed Heading
2026-05-01 10:41 49.00134 2.57530 359 ft 0 kts 357°
2026-05-01 10:58 49.00131 2.57530 363 ft 3 kts 356°
2026-05-01 10:59 49.00105 2.57535 359 ft 4 kts 346°
2026-05-01 10:59 49.00080 2.57548 368 ft 4 kts 330°
2026-05-01 10:59 49.00060 2.57572 365 ft 4 kts 298°
2026-05-01 10:59 49.00055 2.57597 365 ft 0 kts 265°
2026-05-01 11:01 49.00055 2.57596 365 ft 1 kts 265°
2026-05-01 11:02 49.00053 2.57554 368 ft 7 kts 265°
2026-05-01 11:02 49.00047 2.57452 365 ft 11 kts 265°
2026-05-01 11:02 49.00037 2.57333 359 ft 11 kts 251°
2026-05-01 11:02 48.99993 2.57285 366 ft 6 kts 205°
2026-05-01 11:03 48.99964 2.57243 366 ft 6 kts 242°
2026-05-01 11:03 48.99952 2.57161 364 ft 9 kts 264°
2026-05-01 11:03 48.99945 2.57062 366 ft 10 kts 264°
2026-05-01 11:03 48.99937 2.56960 359 ft 10 kts 264°
2026-05-01 11:04 48.99934 2.56864 359 ft 9 kts 268°
2026-05-01 11:04 48.99929 2.56774 366 ft 9 kts 264°
2026-05-01 11:04 48.99924 2.56683 363 ft 8 kts 266°
2026-05-01 11:04 48.99919 2.56586 365 ft 11 kts 266°
2026-05-01 11:05 48.99912 2.56459 365 ft 13 kts 265°
2026-05-01 11:05 48.99897 2.56329 364 ft 11 kts 241°
2026-05-01 11:05 48.99839 2.56275 366 ft 9 kts 183°
2026-05-01 11:05 48.99780 2.56277 365 ft 8 kts 178°
2026-05-01 11:06 48.99743 2.56280 366 ft 0 kts 176°
2026-05-01 11:07 48.99733 2.56281 366 ft 3 kts 176°
2026-05-01 11:07 48.99708 2.56284 363 ft 4 kts 176°
2026-05-01 11:07 48.99673 2.56288 363 ft 6 kts 175°
2026-05-01 11:07 48.99637 2.56301 367 ft 2 kts 137°
2026-05-01 11:08 48.99630 2.56346 364 ft 9 kts 91°
2026-05-01 11:08 48.99631 2.56383 367 ft 1 kts 88°
2026-05-01 11:08 48.99654 2.56835 362 ft 73 kts 85°
2026-05-01 11:09 48.99713 2.57933 366 ft 134 kts 85°
2026-05-01 11:09 48.99805 2.59631 373 ft 184 kts 85°
2026-05-01 11:09 48.99888 2.61640 1064 ft 191 kts 91°
2026-05-01 11:10 49.00110 2.65611 3014 ft 197 kts 86°
2026-05-01 11:10 49.00244 2.67862 3480 ft 224 kts 89°
2026-05-01 11:10 49.00366 2.70362 3944 ft 249 kts 88°
2026-05-01 11:10 49.00506 2.72982 5049 ft 250 kts 88°
2026-05-01 11:11 49.00643 2.75662 6070 ft 255 kts 88°
2026-05-01 11:11 49.00709 2.78367 7024 ft 258 kts 99°
2026-05-01 11:11 49.00306 2.81057 7868 ft 262 kts 109°
2026-05-01 11:11 48.99249 2.83250 8819 ft 263 kts 144°
2026-05-01 11:12 48.97565 2.84442 9634 ft 272 kts 163°
2026-05-01 11:12 48.95649 2.84534 10443 ft 283 kts 187°
2026-05-01 11:12 48.93766 2.83418 10762 ft 313 kts 212°
2026-05-01 11:12 48.92214 2.80900 11052 ft 344 kts 239°
2026-05-01 11:13 48.91528 2.77358 11753 ft 357 kts 266°
2026-05-01 11:13 48.91653 2.73560 12549 ft 365 kts 277°
2026-05-01 11:13 48.92090 2.69737 13361 ft 370 kts 277°
2026-05-01 11:13 48.92319 2.65823 14133 ft 373 kts 271°
2026-05-01 11:14 48.92426 2.61853 14873 ft 378 kts 271°
2026-05-01 11:14 48.92633 2.57849 15615 ft 382 kts 274°
2026-05-01 11:14 48.92921 2.53813 16329 ft 385 kts 274°
2026-05-01 11:14 48.93164 2.49932 17010 ft 389 kts 273°
2026-05-01 11:15 48.93379 2.45805 17671 ft 393 kts 272°
2026-05-01 11:15 48.93602 2.41631 18353 ft 398 kts 272°
2026-05-01 11:15 48.93848 2.37413 18955 ft 402 kts 273°
2026-05-01 11:15 48.94095 2.33151 19497 ft 407 kts 272°
2026-05-01 11:16 48.94333 2.28824 20057 ft 411 kts 272°
2026-05-01 11:16 48.94570 2.24466 20594 ft 416 kts 272°
2026-05-01 11:16 48.94813 2.20058 21126 ft 420 kts 272°
2026-05-01 11:16 48.95058 2.15611 21606 ft 424 kts 272°
2026-05-01 11:17 48.95301 2.11120 22117 ft 428 kts 272°
2026-05-01 11:17 48.95541 2.06640 22595 ft 432 kts 272°
2026-05-01 11:17 48.95785 2.02067 23094 ft 436 kts 272°
2026-05-01 11:17 48.96031 1.97444 23571 ft 440 kts 272°
2026-05-01 11:18 48.96276 1.92778 23992 ft 444 kts 272°
2026-05-01 11:18 48.96521 1.88084 24426 ft 446 kts 272°
2026-05-01 11:18 48.96765 1.83369 24846 ft 448 kts 272°
2026-05-01 11:18 48.97008 1.78624 25258 ft 450 kts 272°
2026-05-01 11:19 48.97169 1.75481 25524 ft 451 kts 272°
2026-05-01 11:19 48.97492 1.69075 26048 ft 454 kts 272°
2026-05-01 11:19 48.97733 1.64270 26449 ft 456 kts 272°
2026-05-01 11:19 48.97973 1.59440 26826 ft 458 kts 272°
2026-05-01 11:20 48.98212 1.54583 27195 ft 460 kts 272°
2026-05-01 11:20 48.98450 1.49712 27560 ft 463 kts 272°
2026-05-01 11:20 48.98684 1.44873 27910 ft 465 kts 272°
2026-05-01 11:20 48.98920 1.39961 28263 ft 466 kts 271°
2026-05-01 11:21 48.99154 1.35019 28604 ft 469 kts 271°
2026-05-01 11:21 48.99388 1.30061 28941 ft 470 kts 271°
2026-05-01 11:21 48.99620 1.25080 29279 ft 472 kts 271°
2026-05-01 11:21 48.99852 1.20077 29600 ft 474 kts 271°
2026-05-01 11:22 49.00082 1.15048 29919 ft 476 kts 271°
2026-05-01 11:22 49.00311 1.09997 30226 ft 478 kts 271°
2026-05-01 11:22 49.00538 1.04939 30503 ft 480 kts 271°
2026-05-01 11:22 49.00764 0.99863 30770 ft 481 kts 271°
2026-05-01 11:23 49.00988 0.94771 31027 ft 483 kts 271°
2026-05-01 11:23 49.01211 0.89665 31296 ft 484 kts 271°
2026-05-01 11:23 49.01429 0.84609 31543 ft 485 kts 271°
2026-05-01 11:23 49.01648 0.79476 31795 ft 486 kts 271°
2026-05-01 11:24 49.01865 0.74332 32052 ft 487 kts 271°
2026-05-01 11:24 49.02081 0.69177 32282 ft 489 kts 271°
2026-05-01 11:24 49.02438 0.60501 32700 ft 490 kts 271°
2026-05-01 11:25 49.02717 0.53628 32996 ft 492 kts 271°
2026-05-01 11:25 49.03065 0.44887 33365 ft 494 kts 271°
2026-05-01 11:25 49.03270 0.39658 33594 ft 495 kts 271°
2026-05-01 11:26 49.03473 0.34419 33787 ft 496 kts 271°
2026-05-01 11:26 49.03871 0.23960 34184 ft 498 kts 271°
2026-05-01 11:26 49.04069 0.18683 34387 ft 499 kts 271°
2026-05-01 11:27 49.04264 0.13397 34583 ft 499 kts 271°
2026-05-01 11:27 49.04457 0.08114 34747 ft 501 kts 271°
2026-05-01 11:27 49.04648 0.02806 34926 ft 501 kts 272°
2026-05-01 11:27 49.04837 -0.02497 35101 ft 502 kts 271°
2026-05-01 11:28 49.05023 -0.07817 35251 ft 503 kts 271°
2026-05-01 11:28 49.05208 -0.13148 35407 ft 503 kts 271°
2026-05-01 11:28 49.05390 -0.18484 35548 ft 504 kts 271°
2026-05-01 11:29 49.05748 -0.29178 35835 ft 506 kts 271°
2026-05-01 11:29 49.05924 -0.34547 35966 ft 507 kts 271°
2026-05-01 11:29 49.06269 -0.45290 36217 ft 508 kts 271°
2026-05-01 11:30 49.06438 -0.50689 36212 ft 511 kts 271°
2026-05-01 11:30 49.06768 -0.61426 36208 ft 509 kts 271°
2026-05-01 11:31 49.07088 -0.72187 36203 ft 508 kts 271°
2026-05-01 11:31 49.07398 -0.82949 36204 ft 507 kts 271°
2026-05-01 11:32 49.07699 -0.93709 36205 ft 507 kts 271°
2026-05-01 11:32 49.07985 -1.04348 36207 ft 493 kts 271°
2026-05-01 11:33 49.08255 -1.14690 36210 ft 485 kts 271°
2026-05-01 11:33 49.08653 -1.19789 36250 ft 486 kts 283°
2026-05-01 11:33 49.09454 -1.24812 36225 ft 489 kts 283°
2026-05-01 11:34 49.11106 -1.34878 36234 ft 489 kts 282°
2026-05-01 11:34 49.12716 -1.44964 36236 ft 489 kts 282°
2026-05-01 11:35 49.14333 -1.55038 36236 ft 488 kts 282°
2026-05-01 11:35 49.15933 -1.65127 36238 ft 488 kts 282°
2026-05-01 11:36 49.17515 -1.75139 36238 ft 487 kts 282°